• In Netherlands
  • List of Countries
  • For 7 days
  • Water Temperature
  • Satellite Maps
  • Weather Map
  • Weather Widgets
  • user-avatar
    Login

    Hourly Weather Ghent

    Today, 28 March, Tuesday

    Time Temperature Precipitation Wind Pressure Humidity
    00:00 +9°C° 0 mm 2 mps 764 mmHg 86%
    01:00 +9°C° 0 mm 2 mps 764 mmHg 87%
    02:00 +8°C° 0 mm 2 mps 764 mmHg 88%
    03:00 +8°C° 0 mm 2 mps 764 mmHg 89%
    04:00 +8°C° 0 mm 2 mps 764 mmHg 90%
    05:00 +8°C° 0 mm 2 mps 764 mmHg 91%
    06:00 +9°C° 0 mm 1 mps 764 mmHg 87%
    07:00 +10°C° 0 mm 2 mps 764 mmHg 82%
    08:00 +13°C° 0 mm 2 mps 764 mmHg 76%
    09:00 +15°C° 0 mm 2 mps 764 mmHg 70%
    10:00 +17°C° 0 mm 3 mps 765 mmHg 66%
    11:00 +18°C° 0 mm 3 mps 765 mmHg 62%
    12:00 +19°C° 0 mm 4 mps 765 mmHg 58%
    13:00 +19°C° 0.1 mm 4 mps 765 mmHg 58%
    14:00 +19°C° 0.1 mm 4 mps 765 mmHg 59%
    15:00 +19°C° 0.1 mm 5 mps 765 mmHg 59%
    16:00 +17°C° 0.1 mm 4 mps 765 mmHg 65%
    17:00 +14°C° 0.1 mm 4 mps 765 mmHg 72%
    18:00 +13°C° 0.1 mm 4 mps 765 mmHg 79%
    19:00 +12°C° 0 mm 4 mps 765 mmHg 82%
    20:00 +11°C° 0 mm 4 mps 766 mmHg 85%
    21:00 +10°C° 0 mm 4 mps 766 mmHg 87%
    22:00 +10°C° 0 mm 4 mps 767 mmHg 89%
    23:00 +8°C° 0 mm 4 mps 767 mmHg 90%

    Tomorrow, 29 March, Wednesday

    Time Temperature Precipitation Wind Pressure Humidity
    00:00 +8°C° 0 mm 4 mps 767 mmHg 91%
    01:00 +8°C° 0 mm 4 mps 767 mmHg 92%
    02:00 +8°C° 0 mm 4 mps 767 mmHg 92%
    03:00 +8°C° 0 mm 4 mps 767 mmHg 92%
    04:00 +8°C° 0 mm 4 mps 767 mmHg 92%
    05:00 +8°C° 0 mm 4 mps 767 mmHg 91%
    06:00 +10°C° 0 mm 4 mps 767 mmHg 90%
    07:00 +9°C° 0 mm 5 mps 767 mmHg 88%
    08:00 +10°C° 0 mm 5 mps 768 mmHg 85%
    09:00 +12°C° 0 mm 5 mps 768 mmHg 83%
    10:00 +13°C° 0 mm 5 mps 768 mmHg 78%
    11:00 +15°C° 0 mm 5 mps 768 mmHg 74%
    12:00 +16°C° 0 mm 5 mps 768 mmHg 69%
    13:00 +15°C° 0 mm 5 mps 768 mmHg 71%
    14:00 +15°C° 0 mm 5 mps 768 mmHg 73%
    15:00 +14°C° 0 mm 4 mps 767 mmHg 74%
    16:00 +14°C° 0 mm 4 mps 767 mmHg 77%
    17:00 +13°C° 0 mm 3 mps 767 mmHg 80%
    18:00 +12°C° 0 mm 3 mps 767 mmHg 83%
    19:00 +12°C° 0 mm 3 mps 768 mmHg 84%
    20:00 +11°C° 0 mm 3 mps 768 mmHg 86%
    21:00 +11°C° 0 mm 3 mps 768 mmHg 87%
    22:00 +11°C° 0 mm 3 mps 768 mmHg 88%
    23:00 +11°C° 0 mm 3 mps 768 mmHg 88%

    Day after tomorrow, 30 March, Thursday

    Time Temperature Precipitation Wind Pressure Humidity
    00:00 +11°C° 0 mm 3 mps 768 mmHg 88%
    01:00 +11°C° 0 mm 3 mps 768 mmHg 89%
    02:00 +10°C° 0 mm 3 mps 768 mmHg 91%
    03:00 +10°C° 0 mm 3 mps 768 mmHg 92%
    04:00 +10°C° 0 mm 3 mps 767 mmHg 92%
    05:00 +10°C° 0 mm 3 mps 767 mmHg 91%
    06:00 +10°C° 0 mm 3 mps 767 mmHg 91%
    07:00 +12°C° 0 mm 4 mps 767 mmHg 84%
    08:00 +13°C° 0 mm 4 mps 767 mmHg 76%
    09:00 +15°C° 0 mm 4 mps 767 mmHg 69%
    10:00 +18°C° 0 mm 4 mps 767 mmHg 65%
    11:00 +19°C° 0 mm 4 mps 767 mmHg 61%
    12:00 +20°C° 0 mm 5 mps 766 mmHg 57%
    13:00 +20°C° 0 mm 5 mps 766 mmHg 57%
    14:00 +20°C° 0 mm 5 mps 765 mmHg 57%
    15:00 +21°C° 0 mm 5 mps 765 mmHg 57%
    16:00 +19°C° 0 mm 4 mps 764 mmHg 65%
    17:00 +18°C° 0 mm 4 mps 764 mmHg 72%
    18:00 +16°C° 0 mm 3 mps 764 mmHg 79%
    19:00 +16°C° 0 mm 3 mps 764 mmHg 82%
    20:00 +14°C° 0 mm 4 mps 764 mmHg 84%
    21:00 +13°C° 0 mm 4 mps 764 mmHg 86%
    22:00 +12°C° 0 mm 4 mps 763 mmHg 87%
    23:00 +12°C° 0 mm 4 mps 763 mmHg 88%

    31 March, Friday

    Time Temperature Precipitation Wind Pressure Humidity
    00:00 +12°C° 0 mm 4 mps 762 mmHg 89%
    01:00 +11°C° 0 mm 4 mps 762 mmHg 90%
    02:00 +11°C° 0 mm 4 mps 761 mmHg 91%
    03:00 +11°C° 0 mm 4 mps 760 mmHg 92%
    04:00 +11°C° 0 mm 4 mps 760 mmHg 92%
    05:00 +11°C° 0 mm 4 mps 760 mmHg 91%
    06:00 +11°C° 0 mm 4 mps 760 mmHg 91%
    07:00 +12°C° 0 mm 4 mps 759 mmHg 85%
    08:00 +14°C° 0 mm 4 mps 759 mmHg 79%
    09:00 +15°C° 0 mm 5 mps 759 mmHg 73%
    10:00 +17°C° 0 mm 5 mps 758 mmHg 67%
    11:00 +19°C° 0 mm 5 mps 758 mmHg 62%
    12:00 +20°C° 0 mm 6 mps 758 mmHg 57%
    13:00 +20°C° 0 mm 6 mps 757 mmHg 57%
    14:00 +20°C° 0 mm 6 mps 757 mmHg 56%
    15:00 +20°C° 0 mm 7 mps 756 mmHg 56%
    16:00 +17°C° 0 mm 6 mps 756 mmHg 63%
    17:00 +16°C° 0 mm 6 mps 756 mmHg 70%
    18:00 +15°C° 0 mm 5 mps 756 mmHg 77%
    19:00 +14°C° 0 mm 5 mps 756 mmHg 80%
    20:00 +13°C° 0 mm 6 mps 756 mmHg 83%
    21:00 +13°C° 0 mm 6 mps 757 mmHg 86%
    22:00 +11°C° 0 mm 6 mps 757 mmHg 85%
    23:00 +10°C° 0 mm 5 mps 757 mmHg 85%

    1 April, Saturday

    Time Temperature Precipitation Wind Pressure Humidity
    00:00 +9°C° 0 mm 5 mps 757 mmHg 85%
    01:00 +10°C° 0 mm 4 mps 757 mmHg 88%
    02:00 +8°C° 0 mm 4 mps 757 mmHg 91%
    03:00 +8°C° 0 mm 4 mps 757 mmHg 94%
    04:00 +8°C° 0 mm 4 mps 758 mmHg 94%
    05:00 +7°C° 0 mm 4 mps 758 mmHg 95%
    06:00 +7°C° 0 mm 4 mps 758 mmHg 95%
    07:00 +8°C° 0 mm 4 mps 758 mmHg 90%
    08:00 +11°C° 0 mm 4 mps 758 mmHg 85%
    09:00 +12°C° 0 mm 5 mps 759 mmHg 79%
    10:00 +12°C° 0 mm 4 mps 759 mmHg 76%
    11:00 +13°C° 0 mm 4 mps 759 mmHg 73%
    12:00 +14°C° 0 mm 4 mps 759 mmHg 70%
    13:00 +14°C° 0.2 mm 4 mps 759 mmHg 69%
    14:00 +16°C° 0.2 mm 3 mps 759 mmHg 68%
    15:00 +16°C° 0.2 mm 3 mps 759 mmHg 67%
    16:00 +14°C° 0.1 mm 3 mps 759 mmHg 73%
    17:00 +14°C° 0.1 mm 2 mps 759 mmHg 78%
    18:00 +12°C° 0.1 mm 2 mps 760 mmHg 83%
    19:00 +12°C° 0 mm 2 mps 760 mmHg 86%
    20:00 +10°C° 0 mm 2 mps 760 mmHg 88%
    21:00 +9°C° 0 mm 2 mps 761 mmHg 90%
    22:00 +8°C° 0 mm 2 mps 761 mmHg 91%
    23:00 +8°C° 0 mm 3 mps 761 mmHg 91%

    2 April, Sunday

    Time Temperature Precipitation Wind Pressure Humidity
    00:00 +7°C° 0 mm 3 mps 761 mmHg 92%
    01:00 +7°C° 0 mm 3 mps 761 mmHg 92%
    02:00 +7°C° 0 mm 3 mps 761 mmHg 92%
    03:00 +5°C° 0 mm 3 mps 761 mmHg 93%
    04:00 +5°C° 0 mm 3 mps 761 mmHg 94%
    05:00 +5°C° 0 mm 3 mps 762 mmHg 94%
    06:00 +5°C° 0 mm 3 mps 762 mmHg 95%
    07:00 +7°C° 0.3 mm 4 mps 762 mmHg 93%
    08:00 +8°C° 0.3 mm 4 mps 762 mmHg 91%
    09:00 +10°C° 0.3 mm 4 mps 763 mmHg 89%
    10:00 +10°C° 0.3 mm 4 mps 763 mmHg 87%
    11:00 +10°C° 0.3 mm 4 mps 763 mmHg 86%
    12:00 +10°C° 0.3 mm 4 mps 763 mmHg 84%
    13:00 +11°C° 0.1 mm 4 mps 763 mmHg 79%
    14:00 +11°C° 0.1 mm 4 mps 763 mmHg 74%
    15:00 +12°C° 0.1 mm 4 mps 764 mmHg 69%
    16:00 +11°C° 0.1 mm 4 mps 764 mmHg 75%
    17:00 +10°C° 0.1 mm 4 mps 764 mmHg 80%
    18:00 +9°C° 0.1 mm 3 mps 764 mmHg 85%
    19:00 +8°C° 0 mm 3 mps 765 mmHg 87%
    20:00 +8°C° 0 mm 3 mps 765 mmHg 89%
    21:00 +7°C° 0 mm 3 mps 766 mmHg 90%
    22:00 +7°C° 0 mm 3 mps 766 mmHg 90%
    23:00 +7°C° 0 mm 2 mps 766 mmHg 91%
    Show more